This demonstration page uses our WeatherBlox Daily Observations layout. Learn more.

39.92423, -83.80882

Hourly Observations for May 29, 2015

Temp ( °F °C ) Dew Point ( °F °C ) Humidity (%) Winds ( mph kmh ) Pressure ( in mb ) Visibility ( mi km ) Precip ( " mm )
12:56 am 00:56 Clear 70 21.1 64 17.7 81 81 SSE 7 11 30.16 1021 10 16.0934 0 0
1:56 am 01:56 Clear 67 19.4 64 17.7 90 90 SE 6 9 30.14 1021 9 14.48406 0 0
2:56 am 02:56 Mostly Clear 65 18.3 63 17.2 93 93 E 5 7 30.14 1021 7 11.26538 0 0
3:56 am 03:56 Mostly Cloudy 65 18.3 63 17.2 93 93 E 3 6 30.14 1021 8 12.87472 0 0
4:56 am 04:56 Cloudy 65 18.3 64 17.7 96 96 Calm 30.14 1021 7 11.26538 0 0
5:56 am 05:56 Mostly Cloudy 65 18.3 64 17.7 96 96 ENE 5 7 30.14 1021 7 11.26538 0 0
6:56 am 06:56 Cloudy with Mist and Fog 67 19.4 66 18.8 96 96 Calm 30.16 1021 5 8.0467 0 0
7:56 am 07:56 Sunny with Mist and Fog 68 20 67 19.4 96 96 ESE 3 6 30.16 1021 5 8.0467 0 0
8:56 am 08:56 Sunny 72 22.2 67 19.4 84 84 VRB 3 6 30.15 1021 7 11.26538 0 0
9:56 am 09:56 Sunny 76 24.4 68 20 77 77 SSE 8 13 30.15 1021 9 14.48406 0 0
10:56 am 10:56 Mostly Sunny 78 25.5 68 20 72 72 SSW 6 9 30.15 1021 9 14.48406 0 0
11:56 am 11:56 Partly Cloudy 80 26.6 68 20 67 67 SSW 15 24 30.16 1021 10 16.0934 0 0
12:56 pm 12:56 Partly Cloudy 82 27.7 67 19.4 61 61 S 10 17 30.16 1021 10 16.0934 0 0
1:56 pm 13:56 Partly Cloudy 82 27.7 67 19.4 61 61 SSW 10 17 30.15 1021 9 14.48406 0 0
2:56 pm 14:56 Mostly Sunny 84 28.8 67 19.4 57 57 S 14 22 30.12 1020 10 16.0934 0 0
3:56 pm 15:56 Sunny 86 30 66 18.8 51 51 SSW 14 22 30.09 1019 10 16.0934 0 0
4:56 pm 16:56 Mostly Sunny 85 29.4 65 18.3 51 51 SSW 14 22 30.07 1018 10 16.0934 0 0
5:56 pm 17:56 Sunny 85 29.4 65 18.3 51 51 S 10 17 30.06 1018 10 16.0934 0 0
6:56 pm 18:56 Mostly Sunny 84 28.8 66 18.8 55 55 S 10 17 30.05 1018 10 16.0934 0 0
7:56 pm 19:56 Partly Cloudy 81 27.2 67 19.4 62 62 S 6 9 30.05 1018 10 16.0934 0 0
8:56 pm 20:56 Clear 78 25.5 67 19.4 69 69 S 8 13 30.06 1018 9 14.48406 0 0
9:56 pm 21:56 Mostly Cloudy 76 24.4 66 18.8 71 71 SSE 9 15 30.07 1018 10 16.0934 0 0
10:56 pm 22:56 Clear 75 23.8 66 18.8 74 74 S 10 17 30.07 1018 10 16.0934 0 0
11:56 pm 23:56 Clear 73 22.7 66 18.8 79 79 S 8 13 30.07 1018 10 16.0934 0 0

Powered by AerisWeather